Regional Weather Roundup
Issued by NWS Cleveland, OH

Home | Current Version | Previous Version | Graphics & Text | Print | Product List | Glossary On
Versions: 1 2 3 4 5 6 7 8 9 10 11 12 13 14 15 16 17 18 19 20 21 22 23 24 25 26 27 28 29 30 31 32 33 34 35 36 37 38 39 40 41 42 43 44 45 46 47 48 49 50
000
ASUS41 KCLE 010412
RWRCLE
OHIO REGIONAL WEATHER ROUNDUP
NATIONAL WEATHER SERVICE WILMINGTON, OH
1200 AM EDT SUN MAY 01 2016

NOTE: "FAIR" INDICATES FEW OR NO CLOUDS BELOW 12,000 FEET WITH NO
SIGNIFICANT WEATHER AND/OR OBSTRUCTIONS TO VISIBILITY.

OHZ001>008-015>018-024>027-034-035-043-044-010500-
   NORTHWEST OHIO

CITY           SKY/WX    TMP DP  RH WIND       PRES   REMARKS
DEFIANCE       RAIN      50  47  89 NE8       29.91F FOG
FINDLAY        CLOUDY    53  49  86 E7        29.89S FOG
TOLEDO EXPRESS LGT RAIN  49  48  97 E12       29.91F FOG
TOLEDO EXEC    LGT RAIN  50  47  89 E10       29.93F
LIMA           CLOUDY    55  54  96 S8        29.88F
$$

OHZ009>014-019>023-028>033-038-089-010500-
   NORTHEAST OHIO

CITY           SKY/WX    TMP DP  RH WIND       PRES   REMARKS
CLE-HOPKINS    LGT RAIN  55  53  93 SE9       29.94F
CLE-LAKEFRONT  LGT RAIN  54  52  93 E7        29.91F
CUY CO. ARPT   NOT AVBL
LORAIN-ELYRIA  LGT RAIN  52  50  93 SE8       29.92S FOG
ASHTABULA      CLOUDY    52  49  89 SE12      29.98F
AKRON-CANTON   LGT RAIN  54  52  93 E8        29.94F FOG
WOOSTER        LGT RAIN  53  52  96 SE9       29.93F FOG
MANSFIELD      CLOUDY    53  53 100 SE10      29.92F
YOUNGSTOWN     RAIN      52  50  93 E12       29.97F FOG
$$

OHZ042-051>053-060>062-070>072-077>081-010500-
  SOUTHWEST OHIO

CITY           SKY/WX    TMP DP  RH WIND       PRES   REMARKS
CINC-COVINGTON LGT RAIN  61  60  97 S10       29.91R
CINC-LUNKEN    LGT RAIN  60  60 100 S7        29.91S
HAMILTON       CLOUDY    61  59  93 S3        29.91R
DAYTON         CLOUDY    58  57  97 S8        29.90F
WRIGHT-PAT AFB CLOUDY    58  58 100 S5        29.89F
DAYTON GENERAL CLOUDY    58  56  93 S9        29.89S
WILMINGTON     LGT RAIN  58  57  97 S10       29.90F
$$

OHZ036-037-039>041-045>050-054>059-063>069-073>076-082>088-010500-
  CENTRAL AND SOUTHEAST OHIO

CITY           SKY/WX    TMP DP  RH WIND       PRES   REMARKS
COLUMBUS       LGT RAIN  55  55 100 SE3       29.91F FOG
OSU AIRPORT    LGT RAIN  57  56  96 S12       29.91F
BOLTON FIELD   CLOUDY    56  56 100 S9        29.92S
RICKENBACK AFB RAIN      56  56  99 S6        29.91F
NEWARK         LGT RAIN  60  56  86 S7        29.91F
MARION         CLOUDY    55  54  96 S10       29.90F FOG
LANCASTER      CLOUDY    59  56  89 SE7       29.93F
ZANESVILLE     LGT RAIN  60  57  89 S7        29.94F
NEW PHILLY     LGT RAIN  55  54  96 SE6       29.94F
$$




USA.gov is the U.S. government's official web portal to all federal, state and local government web resources and services.